Weather History for Mammoth, CA

Change the Weather History Date:

Tuesday, December 24, 2013

  Actual Average Record
Temperature  
Mean Temperature 37 °F -  
Max Temperature 57 °F 37 °F 57 °F (2013)
Min Temperature 17 °F 21 °F -7 °F (2010)
Degree Days  
Heating Degree Days 28    
Moisture  
Dew Point 10 °F    
Average Humidity 44    
Maximum Humidity 80    
Minimum Humidity 8    
Precipitation  
Precipitation 0.00 in - - ()
Sea Level Pressure  
Sea Level Pressure 30.45 in    
Wind  
Wind Speed 4 mph (West)    
Max Wind Speed 14 mph    
Max Gust Speed -    
Visibility 10 miles    
Events      
Averages and records for this station are not official NWS values.
T = Trace of Precipitation, MM = Missing Value Source: NWS Daily Summary

Daily Weather History Graph

Daily Weather History Graph

Search for Another Location

Airport:

Trip Planner

Search our weather history database for the weather conditions in past years. The results will help you decide how hot, cold, wet, or windy it might be!

Date:

Astronomy

Dec. 24, 2013 Rise Set
Actual Time 7:08 AM PST 4:42 PM PST
Civil Twilight 6:38 AM PST 5:11 PM PST
Nautical Twilight 6:05 AM PST 5:44 PM PST
Astronomical Twilight 5:34 AM PST 6:16 PM PST
Moon 11:47 PM PST (12/24) 11:11 AM PST (12/24)
Length of Visible Light 10h 32m
Length of Day
9h 34m
Waning Gibbous, 57% of the Moon is Illuminated
Dec 24
Waning Gibbous
Dec 25
Last Quarter
Jan 1
New
Jan 7
First Quarter
Jan 15
Full

Hourly Weather History & Observations

Time (PST) Temp. Windchill Dew Point Humidity Pressure Visibility Wind Dir Wind Speed Gust Speed Precip Events Conditions
12:15 AM 24.8 °F 19.1 °F 15.8 °F 69% 30.47 in 10.0 mi South 4.6 mph - N/A   Clear
12:35 AM 21.2 °F - 14.0 °F 74% 30.46 in 10.0 mi Calm Calm - N/A   Clear
12:55 AM 24.8 °F - 15.8 °F 69% 30.46 in 10.0 mi North - - N/A   Clear
1:15 AM 17.6 °F - 12.2 °F 79% 30.45 in 10.0 mi Calm Calm - N/A   Clear
1:35 AM 21.2 °F 16.4 °F 14.0 °F 74% 30.45 in 10.0 mi North 3.5 mph - N/A   Clear
1:55 AM 23.0 °F - 15.8 °F 74% 30.46 in 10.0 mi North - - N/A   Clear
2:15 AM 21.2 °F 16.4 °F 14.0 °F 74% 30.46 in 10.0 mi North 3.5 mph - N/A   Clear
2:35 AM 19.4 °F 12.8 °F 14.0 °F 80% 30.46 in 10.0 mi North 4.6 mph - N/A   Clear
2:55 AM 19.4 °F - 14.0 °F 80% 30.46 in 10.0 mi North - - N/A   Clear
3:15 AM 19.4 °F 12.8 °F 12.2 °F 74% 30.46 in 10.0 mi North 4.6 mph - N/A   Clear
3:35 AM 19.4 °F - 12.2 °F 74% 30.47 in 10.0 mi Calm Calm - N/A   Clear
3:55 AM 21.2 °F - 15.8 °F 80% 30.46 in 10.0 mi North - - N/A   Clear
4:15 AM 26.6 °F - 15.8 °F 64% 30.46 in 10.0 mi North - - N/A   Clear
4:35 AM 24.8 °F 20.5 °F 15.8 °F 69% 30.46 in 10.0 mi NNW 3.5 mph - N/A   Clear
4:55 AM 26.6 °F - 15.8 °F 64% 30.46 in 10.0 mi Calm Calm - N/A   Clear
5:15 AM 28.4 °F 19.1 °F 15.8 °F 59% 30.46 in 10.0 mi West 10.4 mph - N/A   Clear
5:35 AM 30.2 °F 21.9 °F 15.8 °F 55% 30.46 in 10.0 mi West 9.2 mph - N/A   Clear
5:55 AM 26.6 °F 20.0 °F 15.8 °F 64% 30.46 in 10.0 mi West 5.8 mph - N/A   Clear
6:15 AM 26.6 °F 19.1 °F 15.8 °F 64% 30.46 in 10.0 mi West 6.9 mph - N/A   Clear
6:35 AM 26.6 °F - 15.8 °F 64% 30.47 in 10.0 mi Calm Calm - N/A   Clear
6:55 AM 26.6 °F 17.5 °F 15.8 °F 64% 30.47 in 10.0 mi WNW 9.2 mph - N/A   Clear
7:15 AM 26.6 °F 22.6 °F 15.8 °F 64% 30.48 in 10.0 mi NNW 3.5 mph - N/A   Clear
7:35 AM 26.6 °F - 15.8 °F 64% 30.48 in 10.0 mi Calm Calm - N/A   Clear
7:55 AM 28.4 °F 24.6 °F 14.0 °F 55% 30.49 in 10.0 mi North 3.5 mph - N/A   Clear
8:15 AM 28.4 °F 24.6 °F 15.8 °F 59% 30.49 in 10.0 mi NNW 3.5 mph - N/A   Clear
8:35 AM 32.0 °F - 15.8 °F 51% 30.50 in 10.0 mi Calm Calm - N/A   Clear
8:55 AM 35.6 °F - 17.6 °F 48% 30.50 in 10.0 mi Calm Calm - N/A   Clear
9:15 AM 39.2 °F - 17.6 °F 42% 30.49 in 10.0 mi Calm Calm - N/A   Clear
9:55 AM 39.2 °F 35.0 °F 19.4 °F 45% 30.50 in 10.0 mi SE 5.8 mph - N/A   Clear
10:15 AM 42.8 °F - 19.4 °F 39% 30.49 in 10.0 mi Calm Calm - N/A   Clear
10:35 AM 42.8 °F 39.3 °F 19.4 °F 39% 30.48 in 10.0 mi SE 5.8 mph - N/A   Clear
10:55 AM 46.4 °F 43.5 °F 19.4 °F 34% 30.48 in 10.0 mi SE 5.8 mph - N/A   Clear
11:15 AM 50.0 °F - 19.4 °F 30% 30.46 in 10.0 mi ESE 4.6 mph - N/A   Clear
11:35 AM 51.8 °F - 19.4 °F 28% 30.46 in 10.0 mi SE 5.8 mph - N/A   Clear
11:55 AM 51.8 °F - 15.8 °F 24% 30.44 in 10.0 mi Calm Calm - N/A   Clear
12:15 PM 55.4 °F - 1.4 °F 11% 30.43 in 10.0 mi Calm Calm - N/A   Clear
12:35 PM 55.4 °F - -4.0 °F 9% 30.42 in 10.0 mi Calm Calm - N/A   Clear
12:55 PM 55.4 °F - 5.0 °F 13% 30.41 in 10.0 mi Calm Calm - N/A   Clear
1:15 PM 55.4 °F - 10.4 °F 17% 30.40 in 10.0 mi ESE 5.8 mph - N/A   Clear
1:35 PM 55.4 °F - 5.0 °F 13% 30.40 in 10.0 mi Calm Calm - N/A   Clear
1:55 PM 57.2 °F - -0.4 °F 10% 30.40 in 10.0 mi Calm Calm - N/A   Clear
2:15 PM 57.2 °F - -2.2 °F 9% 30.39 in 10.0 mi South 4.6 mph - N/A   Clear
2:35 PM 57.2 °F - -4.0 °F 8% 30.39 in 10.0 mi South 5.8 mph - N/A   Clear
2:55 PM 57.2 °F - -4.0 °F 8% 30.39 in 10.0 mi Calm Calm - N/A   Clear
3:15 PM 55.4 °F - 1.4 °F 11% 30.40 in 10.0 mi SE 5.8 mph - N/A   Clear
3:35 PM 53.6 °F - -0.4 °F 11% 30.40 in 10.0 mi SW 5.8 mph - N/A   Clear
3:55 PM 46.4 °F 44.3 °F -2.2 °F 13% 30.40 in 10.0 mi West 4.6 mph - N/A   Clear
4:15 PM 44.6 °F 41.4 °F -4.0 °F 13% 30.41 in 10.0 mi West 5.8 mph - N/A   Clear
4:35 PM 42.8 °F 38.6 °F -4.0 °F 14% 30.41 in 10.0 mi WNW 6.9 mph - N/A   Clear
4:55 PM 41.0 °F 34.7 °F -2.2 °F 16% 30.41 in 10.0 mi West 10.4 mph - N/A   Clear
5:15 PM 39.2 °F 37.0 °F -2.2 °F 17% 30.42 in 10.0 mi West 3.5 mph - N/A   Clear
5:35 PM 33.8 °F - -0.4 °F 23% 30.43 in 10.0 mi Calm Calm - N/A   Clear
5:55 PM 37.4 °F 33.8 °F 3.2 °F 24% 30.43 in 10.0 mi NNW 4.6 mph - N/A   Clear
6:15 PM 32.0 °F 24.8 °F 5.0 °F 32% 30.44 in 10.0 mi West 8.1 mph - N/A   Clear
6:35 PM 33.8 °F 25.3 °F 5.0 °F 30% 30.44 in 10.0 mi West 11.5 mph - N/A   Clear
7:15 PM 32.0 °F 25.6 °F 6.8 °F 35% 30.45 in 10.0 mi WNW 6.9 mph - N/A   Clear
7:35 PM 32.0 °F 24.2 °F 6.8 °F 35% 30.46 in 10.0 mi West 9.2 mph - N/A   Clear
7:55 PM 33.8 °F 25.3 °F 6.8 °F 32% 30.46 in 10.0 mi West 11.5 mph - N/A   Clear
8:15 PM 30.2 °F 24.3 °F 8.6 °F 40% 30.46 in 10.0 mi WNW 5.8 mph - N/A   Clear
8:35 PM 30.2 °F 21.9 °F 8.6 °F 40% 30.46 in 10.0 mi WNW 9.2 mph - N/A   Clear
8:55 PM 28.4 °F 19.1 °F 10.4 °F 47% 30.47 in 10.0 mi WNW 10.4 mph - N/A   Clear
9:15 PM 28.4 °F 18.5 °F 10.4 °F 47% 30.47 in 10.0 mi West 11.5 mph - N/A   Clear
9:35 PM 30.2 °F 23.4 °F 10.4 °F 44% 30.48 in 10.0 mi WNW 6.9 mph - N/A   Clear
9:55 PM 28.4 °F 19.1 °F 12.2 °F 51% 30.48 in 10.0 mi West 10.4 mph - N/A   Clear
10:15 PM 30.2 °F 21.3 °F 14.0 °F 51% 30.49 in 10.0 mi West 10.4 mph - N/A   Clear
10:35 PM 30.2 °F 19.8 °F 14.0 °F 51% 30.50 in 10.0 mi West 13.8 mph - N/A   Clear
10:55 PM 30.2 °F 21.9 °F 12.2 °F 47% 30.50 in 10.0 mi WNW 9.2 mph - N/A   Clear
11:15 PM 28.4 °F 24.6 °F 14.0 °F 55% 30.50 in 10.0 mi NW 3.5 mph - N/A   Clear
11:35 PM 26.6 °F 18.2 °F 14.0 °F 59% 30.50 in 10.0 mi West 8.1 mph - N/A   Clear
11:55 PM 26.6 °F 16.2 °F 12.2 °F 55% 30.49 in 10.0 mi West 11.5 mph - N/A   Clear